Home > Weather > Montpellier > Past weeks

Flag for France Past Weather in Montpellier, Languedoc-Roussillon, France — Yesterday and Last 2 Weeks

Now
66 °F

Clear.


Feels Like: 66 °F
Forecast: 63 / 87 °F
Wind: 7 mph from West

Location: Montpellier Airport

Current Time: Aug 30, 2016 at 7:09:44 AM

Latest Report: Aug 30, 2016 at 6:30 AM


Visibility: 10 mi

Pressure: 30.07 "Hg

Humidity: 60%

Dew Point: 52 °F

Location of MontpellierLocation

Past Weather in Montpellier — Graph

°F

Montpellier Temperature Yesterday

Maximum temperature yesterday: 91 °F (at 5:00 PM)
Minimum temperature yesterday: 70 °F (at 7:30 AM)
Average temperature yesterday: 79 °F

High & Low Weather Summary for the Past Weeks

 TemperatureHumidityPressure
High91 °F (Aug 29, 5:00 PM)94% (Aug 16, 4:30 AM)30.24 "Hg (Aug 16, 4:30 AM)
Low61 °F (Aug 15, 6:00 AM)15% (Aug 22, 4:35 PM)29.80 "Hg (Aug 18, 3:30 PM)
Average75 °F62%30.04 "Hg
* Reported Aug 15 6:00 AM — Aug 30 6:00 AM, Montpellier, Weather by CustomWeather, © 2016

Note: Actual official high and low records may vary slightly from our data, if they occured in-between our weather recording intervals... More about our weather records

Advertising

Montpellier Weather History for the Previous 24 Hours

Scroll right to see more
 ConditionsComfort  
Time TempWeatherWind HumidityBarometerVisibility
6:00 AM
Tue, Aug 30
66 °FClear.7 mph56%30.07 "Hg10 mi
5:30 AM68 °FClear.8 mph53%30.07 "Hg10 mi
5:00 AM68 °FClear.9 mph56%30.07 "Hg10 mi
4:30 AM68 °FClear.10 mph53%30.07 "Hg10 mi
4:00 AM68 °FClear.7 mph56%30.07 "Hg10 mi
3:30 AM70 °FClear.8 mph53%30.07 "Hg10 mi
3:00 AM70 °FClear.7 mph53%30.07 "Hg10 mi
2:30 AM72 °FClear.7 mph47%30.07 "Hg10 mi
2:00 AM72 °FPassing clouds.6 mph50%30.07 "HgN/A
1:30 AM72 °FClear.6 mph50%30.07 "Hg10 mi
1:00 AM72 °FClear.5 mph50%30.09 "Hg10 mi
12:30 AM73 °FPassing clouds.6 mph47%30.09 "HgN/A
12:00 AM75 °FClear.9 mph44%30.09 "Hg10 mi
11:30 PM
Mon, Aug 29
75 °FClear.10 mph41%30.09 "Hg10 mi
11:00 PM77 °FClear.10 mph39%30.09 "Hg10 mi
10:30 PM77 °FClear.9 mph39%30.07 "Hg10 mi
10:00 PM79 °FPassing clouds.12 mph34%30.07 "HgN/A
9:30 PM79 °FClear.13 mph34%30.04 "Hg10 mi
9:00 PM81 °FSunny.14 mph32%30.04 "Hg10 mi
8:30 PM84 °FSunny.13 mph29%30.01 "Hg10 mi
8:00 PM84 °FSunny.16 mph27%30.01 "Hg10 mi
7:30 PM86 °FSunny.15 mph25%29.98 "Hg10 mi
7:00 PM88 °FSunny.20 mph24%29.98 "Hg10 mi
6:30 PM86 °FSunny.20 mph27%29.98 "Hg10 mi
6:00 PM88 °FSunny.21 mph29%29.98 "Hg10 mi
5:30 PM90 °FSunny.20 mph29%29.98 "Hg10 mi
5:00 PM91 °FSunny.8 mph30%29.98 "Hg10 mi
4:30 PM88 °FSunny.9 mph40%29.98 "Hg10 mi
4:00 PM88 °FSunny.10 mph43%29.98 "Hg10 mi
3:30 PM88 °FSunny.10 mph40%30.01 "Hg10 mi
2:30 PM88 °FSunny.12 mph40%30.04 "Hg10 mi
2:00 PM88 °FSunny.10 mph38%30.04 "Hg10 mi
1:30 PM88 °FSunny.6 mph35%30.04 "Hg10 mi
1:00 PM88 °FPassing clouds.7 mph38%30.07 "HgN/A
12:30 PM86 °FPassing clouds.5 mph40%30.07 "HgN/A
12:00 PM82 °FSunny.3 mph45%30.07 "Hg10 mi
11:30 AM82 °FPassing clouds.6 mph48%30.07 "HgN/A
11:00 AM82 °FScattered showers. Clear.5 mph45%30.07 "HgN/A
10:00 AM81 °FSunny.3 mph51%30.09 "Hg10 mi
9:30 AM79 °FSunny.3 mph54%30.07 "Hg10 mi
9:00 AM77 °FSunny.No wind57%30.09 "Hg10 mi
8:30 AM73 °FSunny.2 mph65%30.07 "Hg10 mi
8:00 AM72 °FClear.3 mph73%30.07 "Hg10 mi
7:30 AM70 °FClear.3 mph73%30.07 "Hg10 mi
7:00 AM72 °FClear.5 mph69%30.07 "Hg10 mi
Weather by CustomWeather, © 2016

See weather overviewHow to use our weather pages